Location: Downe
(51.3167°N, 0.0500°E)
Time: 23:00:06
(UTC+00:00)

Gbstr 26 Del rocket - Pass Details

Date: 17 November 2019
Orbit: 493 x 1264 km, 51.8° (Epoch: 11 December)

Event Time Altitude Azimuth Distance (km) Brightness Sun altitude
Exits shadow 05:51:36 19° 251° (WSW) 1,251 4.1 -13.6°
Maximum altitude 05:54:13 81° 167° (SSE) 506 2.6 -13.2°
Drops below altitude 10° 05:57:59 10° 79° (E) 1,708 6.4 -12.6°
Sets 06:00:12 0° 79° (ENE) 2,630 7.5 -12.3°
